QPF
0.00 0.00 0.00 0.00 0.01 0.01 0.01 0.01 0.01 0.01 0.01 0.01 0.02 0.02 0.01 0.02 0.01 0.01 0.01 0.01 0.01 0.01 0.00 0.01 0.01 0.01 0.01 0.01 0.01 0.01 0.01 0.01 0.01 0.00 0.00 0.01 0.01 0.01 0.01 0.01 0.01 0.01 0.01 0.00
0.00 0.00 0.00 0.00 0.00 0.00 0.00 0.01 0.01 0.01 0.01 0.01 0.01 0.01 0.01 0.01 0.02 0.02 0.01 0.01 0.02 0.02 0.00 0.01 0.01 0.02 0.02 0.02 0.02 0.02 0.01 0.01 0.01 0.00 0.00 0.00 0.00 0.01 0.01 0.01 0.00 0.01 0.01 0.01
0.00 0.01 0.00 0.00 0.00 0.00 0.00 0.01 0.00 0.01 0.02 0.02 0.01 0.01 0.01 0.01 0.03 0.02 0.02 0.01 0.01 0.01 0.00 0.00 0.00 0.00 0.01 0.02 0.03 0.03 0.02 0.01 0.01 0.00 0.00 0.00 0.01 0.01 0.01 0.01 0.01 0.01 0.01 0.01
0.00 0.00 0.00 0.00 0.00 0.00 0.00 0.01 0.00 0.00 0.01 0.02 0.01 0.02 0.02 0.02 0.02 0.03 0.03 0.02 0.01 0.01 0.00 0.01 0.01 0.01 0.01 0.01 0.02 0.03 0.03 0.02 0.01 0.01 0.01 0.00 0.01 0.01 0.01 0.00 0.00 0.01 0.01 0.01
0.00 0.00 0.00 0.00 0.00 0.00 0.00 0.00 0.00 0.00 0.00 0.01 0.01 0.02 0.02 0.02 0.02 0.02 0.02 0.01 0.01 0.00 0.00 0.01 0.01 0.01 0.01 0.01 0.01 0.02 0.03 0.03 0.02 0.02 0.01 0.01 0.01 0.01 0.00 0.00 0.00 0.00 0.01 0.01
0.00 0.00 0.00 0.00 0.00 0.00 0.00 0.00 0.00 0.00 0.00 0.01 0.00 0.01 0.02 0.02 0.01 0.01 0.01 0.00 0.00 0.00 0.00 0.00 0.00 0.01 0.02 0.01 0.01 0.01 0.03 0.04 0.05 0.04 0.02 0.01 0.01 0.01 0.00 0.00 0.00 0.00 0.01 0.01
0.00 0.00 0.00 0.00 0.00 0.00 0.00 0.01 0.02 0.02 0.02 0.01 0.00 0.00 0.01 0.01 0.01 0.01 0.00 0.00 0.00 0.01 0.01 0.01 0.00 0.00 0.01 0.02 0.01 0.01 0.01 0.03 0.05 0.05 0.04 0.02 0.01 0.01 0.00 0.00 0.00 0.00 0.00 0.00
0.00 0.00 0.00 0.00 0.00 0.00 0.00 0.01 0.03 0.04 0.02 0.01 0.00 0.01 0.01 0.01 0.00 0.00 0.00 0.00 0.00 0.00 0.01 0.00 0.00 0.00 0.00 0.00 0.01 0.01 0.01 0.01 0.03 0.04 0.05 0.04 0.02 0.02 0.01 0.00 0.00 0.01 0.01 0.01
0.00 0.00 0.00 0.00 0.00 0.00 0.00 0.00 0.01 0.02 0.02 0.02 0.01 0.01 0.02 0.01 0.00 0.00 0.00 0.00 0.00 0.00 0.01 0.01 0.01 0.01 0.00 0.00 0.01 0.01 0.01 0.02 0.02 0.03 0.04 0.04 0.04 0.03 0.01 0.00 0.00 0.01 0.01 0.01
0.00 0.00 0.00 0.00 0.00 0.00 0.00 0.00 0.00 0.01 0.02 0.02 0.02 0.01 0.02 0.01 0.01 0.00 0.00 0.00 0.00 0.01 0.01 0.01 0.01 0.01 0.01 0.00 0.01 0.01 0.02 0.02 0.02 0.03 0.04 0.04 0.04 0.03 0.02 0.01 0.01 0.01 0.01 0.00
0.00 0.00 0.00 0.00 0.00 0.00 0.01 0.01 0.01 0.01 0.01 0.02 0.02 0.01 0.02 0.03 0.02 0.02 0.01 0.01 0.01 0.01 0.02 0.04 0.03 0.01 0.01 0.01 0.01 0.01 0.02 0.02 0.02 0.03 0.03 0.04 0.04 0.05 0.03 0.01 0.01 0.00 0.01 0.01
0.00 0.00 0.00 0.00 0.00 0.00 0.00 0.01 0.01 0.02 0.01 0.01 0.02 0.02 0.02 0.05 0.04 0.04 0.02 0.01 0.01 0.01 0.01 0.02 0.01 0.00 0.01 0.01 0.01 0.01 0.02 0.02 0.03 0.03 0.03 0.04 0.05 0.05 0.04 0.02 0.01 0.01 0.01 0.01
0.00 0.00 0.01 0.01 0.01 0.00 0.00 0.00 0.00 0.01 0.01 0.01 0.02 0.02 0.02 0.05 0.03 0.01 0.01 0.01 0.01 0.01 0.02 0.02 0.01 0.01 0.01 0.01 0.01 0.02 0.02 0.03 0.02 0.03 0.03 0.03 0.05 0.06 0.04 0.02 0.01 0.01 0.01 0.02
0.00 0.00 0.01 0.01 0.00 0.00 0.00 0.00 0.01 0.01 0.02 0.01 0.01 0.01 0.01 0.01 0.01 0.01 0.01 0.01 0.01 0.01 0.02 0.03 0.02 0.01 0.01 0.01 0.02 0.02 0.02 0.03 0.04 0.03 0.03 0.03 0.04 0.06 0.04 0.02 0.02 0.01 0.02 0.01
0.00 0.00 0.00 0.00 0.00 0.00 0.00 0.00 0.00 0.01 0.01 0.01 0.00 0.01 0.01 0.01 0.01 0.01 0.01 0.01 0.01 0.01 0.01 0.03 0.03 0.01 0.00 0.01 0.02 0.02 0.02 0.03 0.04 0.04 0.03 0.03 0.04 0.04 0.04 0.03 0.03 0.02 0.02 0.01
0.00 0.00 0.00 0.00 0.00 0.00 0.00 0.00 0.00 0.01 0.01 0.01 0.01 0.01 0.00 0.00 0.00 0.00 0.00 0.01 0.01 0.01 0.01 0.01 0.01 0.01 0.00 0.01 0.01 0.02 0.03 0.03 0.04 0.06 0.04 0.03 0.04 0.04 0.05 0.03 0.02 0.03 0.02 0.01
0.00 0.00 0.01 0.00 0.00 0.00 0.01 0.00 0.00 0.00 0.00 0.00 0.00 0.00 0.00 0.00 0.00 0.00 0.00 0.01 0.01 0.01 0.01 0.01 0.01 0.01 0.01 0.00 0.01 0.01 0.03 0.04 0.04 0.05 0.06 0.04 0.03 0.05 0.05 0.04 0.02 0.03 0.02 0.01
0.00 0.00 0.01 0.01 0.01 0.02 0.01 0.00 0.00 0.00 0.00 0.00 0.00 0.00 0.00 0.01 0.00 0.01 0.01 0.01 0.00 0.01 0.01 0.01 0.01 0.01 0.01 0.01 0.01 0.01 0.02 0.03 0.05 0.05 0.05 0.04 0.04 0.04 0.05 0.04 0.03 0.02 0.02 0.02
0.00 0.01 0.02 0.02 0.02 0.02 0.02 0.01 0.01 0.01 0.01 0.01 0.01 0.01 0.01 0.01 0.01 0.01 0.01 0.00 0.00 0.01 0.01 0.01 0.01 0.02 0.02 0.01 0.01 0.02 0.03 0.03 0.04 0.06 0.06 0.06 0.06 0.04 0.04 0.04 0.03 0.04 0.03 0.02
0.00 0.01 0.02 0.02 0.03 0.03 0.02 0.01 0.00 0.01 0.02 0.01 0.00 0.00 0.00 0.00 0.01 0.01 0.01 0.00 0.01 0.01 0.00 0.00 0.01 0.02 0.02 0.02 0.02 0.02 0.04 0.04 0.04 0.06 0.07 0.07 0.06 0.05 0.04 0.04 0.03 0.04 0.03 0.03
0.01 0.02 0.02 0.02 0.03 0.03 0.02 0.01 0.01 0.01 0.02 0.00 0.00 0.00 0.01 0.01 0.01 0.01 0.00 0.01 0.00 0.01 0.01 0.01 0.01 0.02 0.02 0.02 0.03 0.03 0.04 0.05 0.05 0.05 0.06 0.06 0.06 0.06 0.06 0.05 0.04 0.04 0.04 0.04
0.02 0.03 0.02 0.02 0.03 0.03 0.02 0.01 0.01 0.01 0.00 0.00 0.01 0.01 0.01 0.01 0.01 0.00 0.00 0.00 0.00 0.00 0.00 0.01 0.01 0.01 0.02 0.02 0.02 0.04 0.05 0.04 0.04 0.04 0.05 0.05 0.05 0.06 0.05 0.04 0.04 0.05 0.05 0.05
0.02 0.03 0.02 0.02 0.02 0.02 0.01 0.01 0.01 0.01 0.00 0.00 0.00 0.00 0.00 0.00 0.00 0.00 0.00 0.00 0.00 0.00 0.00 0.01 0.01 0.01 0.02 0.02 0.02 0.02 0.04 0.05 0.04 0.03 0.02 0.03 0.03 0.04 0.04 0.04 0.04 0.05 0.06 0.05
0.01 0.01 0.01 0.01 0.01 0.00 0.00 0.00 0.00 0.00 0.00 0.00 0.00 0.00 0.00 0.00 0.00 0.00 0.00 0.00 0.00 0.00 0.00 0.00 0.01 0.01 0.01 0.02 0.02 0.02 0.02 0.03 0.04 0.03 0.02 0.02 0.02 0.03 0.03 0.04 0.04 0.05 0.05 0.06
0.01 0.00 0.00 0.01 0.00 0.00 0.00 0.00 0.00 0.01 0.00 0.00 0.00 0.00 0.00 0.01 0.01 0.01 0.00 0.00 0.00 0.00 0.00 0.00 0.01 0.01 0.02 0.02 0.02 0.02 0.02 0.02 0.02 0.02 0.02 0.02 0.02 0.02 0.03 0.05 0.06 0.05 0.06 0.07
0.01 0.01 0.01 0.01 0.01 0.01 0.01 0.01 0.01 0.01 0.01 0.01 0.00 0.00 0.01 0.01 0.01 0.01 0.01 0.01 0.00 0.00 0.00 0.00 0.00 0.01 0.02 0.02 0.02 0.02 0.02 0.02 0.02 0.02 0.01 0.01 0.02 0.02 0.02 0.03 0.05 0.06 0.07 0.06
MSLP
1012.62 1013.47 1014.24 1014.87 1015.39 1015.80 1016.12 1016.39 1016.60 1016.78 1016.91 1017.00 1017.04 1017.04 1017.01 1016.99 1016.99 1017.07 1017.22 1017.45 1017.75 1018.09 1018.43 1018.73 1018.95 1019.10 1019.16 1019.18 1019.18 1019.21 1019.32 1019.53 1019.84 1020.23 1020.66 1021.09 1021.48 1021.77 1021.95 1022.01 1021.96 1021.85 1021.69 1021.53
1013.29 1013.96 1014.52 1014.97 1015.32 1015.61 1015.86 1016.08 1016.28 1016.46 1016.57 1016.62 1016.59 1016.50 1016.37 1016.25 1016.18 1016.22 1016.39 1016.70 1017.13 1017.63 1018.14 1018.61 1018.99 1019.25 1019.40 1019.48 1019.51 1019.57 1019.70 1019.93 1020.26 1020.67 1021.13 1021.58 1021.96 1022.24 1022.39 1022.41 1022.33 1022.19 1022.03 1021.88
1013.78 1014.25 1014.61 1014.88 1015.11 1015.32 1015.54 1015.76 1015.98 1016.16 1016.27 1016.27 1016.16 1015.95 1015.69 1015.44 1015.28 1015.27 1015.45 1015.82 1016.37 1017.03 1017.72 1018.38 1018.92 1019.32 1019.58 1019.73 1019.81 1019.89 1020.04 1020.27 1020.62 1021.04 1021.50 1021.95 1022.33 1022.59 1022.71 1022.71 1022.62 1022.48 1022.33 1022.21
1014.05 1014.33 1014.52 1014.67 1014.83 1015.01 1015.25 1015.53 1015.81 1016.03 1016.13 1016.08 1015.87 1015.53 1015.11 1014.71 1014.41 1014.32 1014.48 1014.90 1015.54 1016.35 1017.22 1018.05 1018.76 1019.31 1019.68 1019.90 1020.03 1020.14 1020.29 1020.53 1020.87 1021.29 1021.75 1022.20 1022.57 1022.83 1022.95 1022.95 1022.87 1022.74 1022.62 1022.55
1014.09 1014.21 1014.29 1014.37 1014.51 1014.74 1015.06 1015.44 1015.81 1016.09 1016.21 1016.11 1015.80 1015.31 1014.71 1014.13 1013.69 1013.49 1013.59 1014.02 1014.74 1015.66 1016.67 1017.66 1018.53 1019.20 1019.68 1019.97 1020.15 1020.27 1020.43 1020.67 1021.00 1021.42 1021.88 1022.32 1022.71 1022.98 1023.12 1023.15 1023.11 1023.02 1022.95 1022.93
1013.90 1013.91 1013.93 1014.00 1014.19 1014.51 1014.96 1015.47 1015.96 1016.33 1016.47 1016.34 1015.94 1015.30 1014.53 1013.77 1013.16 1012.83 1012.86 1013.27 1014.01 1015.01 1016.13 1017.25 1018.23 1019.02 1019.58 1019.94 1020.15 1020.30 1020.45 1020.68 1021.01 1021.42 1021.88 1022.35 1022.75 1023.06 1023.26 1023.35 1023.36 1023.33 1023.32 1023.34
1013.53 1013.48 1013.47 1013.59 1013.86 1014.31 1014.91 1015.58 1016.20 1016.65 1016.83 1016.68 1016.19 1015.43 1014.51 1013.59 1012.83 1012.37 1012.31 1012.67 1013.42 1014.45 1015.64 1016.83 1017.91 1018.78 1019.41 1019.81 1020.06 1020.22 1020.37 1020.59 1020.91 1021.32 1021.80 1022.29 1022.74 1023.10 1023.37 1023.53 1023.62 1023.66 1023.71 1023.77
1013.05 1012.98 1012.99 1013.16 1013.53 1014.12 1014.86 1015.66 1016.39 1016.93 1017.14 1016.98 1016.44 1015.59 1014.56 1013.51 1012.63 1012.07 1011.92 1012.23 1012.95 1013.99 1015.20 1016.44 1017.57 1018.50 1019.18 1019.62 1019.89 1020.07 1020.23 1020.45 1020.76 1021.18 1021.66 1022.18 1022.68 1023.11 1023.44 1023.69 1023.85 1023.97 1024.07 1024.18
1012.58 1012.50 1012.54 1012.77 1013.23 1013.91 1014.75 1015.64 1016.45 1017.03 1017.27 1017.11 1016.54 1015.64 1014.55 1013.43 1012.48 1011.85 1011.65 1011.91 1012.59 1013.61 1014.82 1016.07 1017.23 1018.18 1018.90 1019.38 1019.68 1019.88 1020.05 1020.28 1020.59 1021.01 1021.51 1022.05 1022.59 1023.07 1023.48 1023.79 1024.03 1024.22 1024.37 1024.51
1012.21 1012.13 1012.20 1012.47 1012.97 1013.69 1014.56 1015.48 1016.30 1016.88 1017.11 1016.94 1016.37 1015.46 1014.36 1013.24 1012.28 1011.63 1011.40 1011.63 1012.28 1013.27 1014.45 1015.69 1016.84 1017.81 1018.56 1019.08 1019.42 1019.65 1019.86 1020.10 1020.43 1020.85 1021.35 1021.91 1022.47 1022.99 1023.45 1023.83 1024.13 1024.37 1024.57 1024.74
1012.03 1011.97 1012.05 1012.32 1012.81 1013.49 1014.31 1015.16 1015.91 1016.44 1016.63 1016.43 1015.87 1014.99 1013.94 1012.87 1011.95 1011.33 1011.11 1011.33 1011.95 1012.89 1014.03 1015.23 1016.37 1017.35 1018.12 1018.69 1019.09 1019.38 1019.63 1019.91 1020.26 1020.69 1021.20 1021.75 1022.32 1022.86 1023.34 1023.76 1024.11 1024.40 1024.65 1024.86
1012.09 1012.04 1012.11 1012.35 1012.77 1013.35 1014.04 1014.74 1015.35 1015.75 1015.85 1015.62 1015.06 1014.24 1013.26 1012.29 1011.46 1010.91 1010.73 1010.95 1011.53 1012.42 1013.50 1014.65 1015.76 1016.74 1017.54 1018.16 1018.63 1019.00 1019.33 1019.67 1020.06 1020.51 1021.02 1021.57 1022.13 1022.66 1023.16 1023.60 1023.99 1024.33 1024.62 1024.89
1012.35 1012.32 1012.38 1012.55 1012.85 1013.27 1013.77 1014.26 1014.66 1014.89 1014.88 1014.59 1014.03 1013.27 1012.40 1011.55 1010.84 1010.38 1010.24 1010.46 1011.01 1011.83 1012.83 1013.91 1014.97 1015.93 1016.76 1017.45 1018.01 1018.48 1018.91 1019.33 1019.78 1020.27 1020.79 1021.34 1021.88 1022.41 1022.91 1023.37 1023.79 1024.17 1024.53 1024.85
1012.75 1012.74 1012.77 1012.87 1013.03 1013.26 1013.52 1013.77 1013.93 1013.96 1013.80 1013.44 1012.89 1012.20 1011.44 1010.72 1010.14 1009.77 1009.68 1009.89 1010.39 1011.12 1012.02 1013.00 1013.99 1014.93 1015.78 1016.53 1017.19 1017.78 1018.32 1018.86 1019.39 1019.94 1020.49 1021.05 1021.59 1022.12 1022.62 1023.09 1023.55 1023.98 1024.40 1024.80
1013.19 1013.20 1013.21 1013.22 1013.24 1013.27 1013.29 1013.28 1013.21 1013.03 1012.74 1012.31 1011.77 1011.15 1010.51 1009.92 1009.45 1009.17 1009.11 1009.30 1009.72 1010.34 1011.11 1011.97 1012.87 1013.76 1014.62 1015.43 1016.18 1016.90 1017.58 1018.24 1018.88 1019.50 1020.11 1020.70 1021.26 1021.79 1022.31 1022.80 1023.30 1023.79 1024.27 1024.76
1013.57 1013.60 1013.58 1013.51 1013.39 1013.24 1013.05 1012.81 1012.52 1012.17 1011.75 1011.28 1010.76 1010.22 1009.69 1009.23 1008.87 1008.67 1008.63 1008.77 1009.10 1009.58 1010.20 1010.91 1011.70 1012.52 1013.36 1014.21 1015.05 1015.88 1016.70 1017.49 1018.25 1018.97 1019.66 1020.29 1020.89 1021.45 1021.99 1022.53 1023.07 1023.62 1024.17 1024.73
1013.83 1013.86 1013.80 1013.66 1013.43 1013.13 1012.76 1012.34 1011.88 1011.40 1010.91 1010.42 1009.94 1009.48 1009.08 1008.74 1008.49 1008.34 1008.31 1008.40 1008.61 1008.95 1009.39 1009.95 1010.59 1011.32 1012.12 1012.98 1013.88 1014.81 1015.74 1016.66 1017.54 1018.37 1019.14 1019.85 1020.50 1021.11 1021.69 1022.27 1022.86 1023.47 1024.09 1024.71
1013.95 1013.95 1013.85 1013.64 1013.32 1012.90 1012.40 1011.86 1011.30 1010.75 1010.23 1009.75 1009.34 1008.99 1008.71 1008.49 1008.34 1008.24 1008.21 1008.24 1008.35 1008.53 1008.81 1009.19 1009.68 1010.30 1011.02 1011.86 1012.79 1013.78 1014.80 1015.82 1016.81 1017.74 1018.60 1019.38 1020.10 1020.76 1021.40 1022.03 1022.66 1023.32 1023.99 1024.66
1013.97 1013.91 1013.75 1013.47 1013.08 1012.58 1012.00 1011.39 1010.78 1010.21 1009.71 1009.29 1008.97 1008.74 1008.58 1008.48 1008.42 1008.38 1008.35 1008.33 1008.34 1008.38 1008.50 1008.71 1009.05 1009.53 1010.17 1010.95 1011.86 1012.87 1013.95 1015.03 1016.10 1017.11 1018.04 1018.90 1019.68 1020.40 1021.09 1021.76 1022.44 1023.14 1023.84 1024.55
1013.97 1013.82 1013.58 1013.23 1012.77 1012.22 1011.61 1010.97 1010.36 1009.81 1009.37 1009.03 1008.81 1008.70 1008.66 1008.67 1008.70 1008.71 1008.69 1008.63 1008.56 1008.49 1008.47 1008.53 1008.72 1009.07 1009.60 1010.30 1011.16 1012.15 1013.22 1014.34 1015.44 1016.50 1017.49 1018.40 1019.23 1020.01 1020.74 1021.45 1022.17 1022.89 1023.62 1024.34
1014.01 1013.76 1013.43 1013.01 1012.50 1011.91 1011.28 1010.65 1010.07 1009.57 1009.19 1008.94 1008.82 1008.81 1008.88 1008.99 1009.09 1009.15 1009.14 1009.07 1008.94 1008.79 1008.66 1008.59 1008.66 1008.88 1009.28 1009.88 1010.67 1011.60 1012.64 1013.74 1014.85 1015.93 1016.94 1017.89 1018.76 1019.57 1020.34 1021.08 1021.82 1022.56 1023.29 1024.02
1014.16 1013.79 1013.37 1012.87 1012.31 1011.70 1011.07 1010.47 1009.92 1009.48 1009.17 1009.00 1008.96 1009.03 1009.17 1009.35 1009.50 1009.60 1009.61 1009.53 1009.37 1009.16 1008.95 1008.79 1008.75 1008.86 1009.16 1009.65 1010.34 1011.19 1012.17 1013.22 1014.30 1015.37 1016.39 1017.35 1018.24 1019.08 1019.87 1020.64 1021.39 1022.14 1022.88 1023.61
1014.38 1013.91 1013.40 1012.84 1012.24 1011.63 1011.01 1010.43 1009.93 1009.54 1009.28 1009.15 1009.16 1009.28 1009.46 1009.67 1009.84 1009.96 1009.98 1009.89 1009.71 1009.47 1009.21 1009.00 1008.88 1008.90 1009.10 1009.49 1010.08 1010.84 1011.74 1012.73 1013.77 1014.81 1015.82 1016.78 1017.68 1018.54 1019.35 1020.13 1020.90 1021.65 1022.40 1023.13
1014.61 1014.06 1013.48 1012.88 1012.27 1011.65 1011.06 1010.52 1010.05 1009.69 1009.46 1009.35 1009.37 1009.48 1009.66 1009.85 1010.02 1010.13 1010.14 1010.05 1009.86 1009.61 1009.33 1009.08 1008.91 1008.87 1008.99 1009.31 1009.81 1010.48 1011.31 1012.23 1013.21 1014.22 1015.21 1016.17 1017.09 1017.95 1018.78 1019.58 1020.36 1021.12 1021.87 1022.60
1014.73 1014.12 1013.51 1012.90 1012.29 1011.70 1011.14 1010.64 1010.20 1009.86 1009.63 1009.51 1009.49 1009.57 1009.70 1009.85 1009.98 1010.05 1010.04 1009.94 1009.75 1009.49 1009.21 1008.94 1008.75 1008.67 1008.74 1008.99 1009.43 1010.03 1010.79 1011.66 1012.60 1013.58 1014.56 1015.52 1016.45 1017.33 1018.17 1018.99 1019.78 1020.55 1021.31 1022.05
1014.61 1013.98 1013.36 1012.77 1012.20 1011.65 1011.14 1010.67 1010.27 1009.94 1009.69 1009.54 1009.47 1009.47 1009.53 1009.61 1009.68 1009.70 1009.66 1009.53 1009.34 1009.09 1008.81 1008.55 1008.35 1008.25 1008.30 1008.51 1008.90 1009.45 1010.16 1010.99 1011.91 1012.87 1013.85 1014.82 1015.76 1016.67 1017.53 1018.36 1019.16 1019.95 1020.71 1021.46
Thickness
5759 5746 5735 5738 5742 5739 5735 5728 5725 5730 5742 5733 5726 5725 5731 5736 5734 5733 5733 5731 5730 5730 5732 5733 5733 5732 5730 5729 5727 5725 5723 5722 5720 5717 5715 5712 5710 5711 5710 5710 5709 5709 5709 5709
5743 5734 5743 5748 5745 5739 5732 5724 5723 5727 5736 5729 5723 5724 5732 5733 5731 5730 5729 5728 5728 5727 5727 5727 5726 5726 5724 5721 5721 5720 5718 5716 5715 5713 5711 5709 5706 5705 5704 5703 5703 5703 5703 5703
5732 5735 5747 5743 5736 5730 5727 5721 5720 5718 5724 5728 5721 5715 5723 5730 5732 5731 5729 5728 5727 5724 5721 5720 5720 5719 5717 5715 5714 5714 5713 5711 5709 5708 5706 5703 5700 5698 5696 5695 5696 5697 5697 5697
5735 5741 5739 5732 5728 5726 5715 5726 5724 5718 5710 5708 5714 5696 5714 5722 5721 5722 5722 5723 5722 5721 5719 5716 5714 5711 5710 5709 5709 5708 5707 5705 5704 5702 5699 5695 5690 5687 5688 5688 5689 5690 5690 5690
5727 5733 5729 5723 5725 5726 5720 5727 5722 5718 5710 5705 5712 5700 5706 5719 5711 5714 5717 5718 5718 5717 5715 5711 5708 5705 5704 5703 5702 5701 5700 5698 5697 5695 5693 5689 5686 5684 5683 5683 5682 5682 5683 5683
5729 5736 5732 5727 5730 5729 5725 5720 5718 5716 5707 5690 5708 5702 5694 5708 5710 5712 5714 5715 5714 5712 5709 5706 5704 5701 5697 5696 5694 5694 5692 5690 5690 5688 5686 5684 5681 5679 5677 5676 5675 5675 5675 5675
5718 5724 5729 5729 5719 5721 5717 5701 5687 5684 5682 5690 5714 5702 5694 5710 5718 5714 5710 5708 5708 5706 5702 5698 5695 5693 5690 5687 5686 5686 5685 5683 5682 5681 5679 5678 5676 5674 5672 5670 5669 5668 5667 5667
5704 5703 5717 5720 5713 5706 5707 5701 5678 5668 5676 5688 5703 5695 5698 5712 5715 5713 5709 5705 5702 5699 5696 5692 5689 5686 5683 5681 5679 5679 5678 5676 5676 5674 5673 5672 5670 5668 5667 5666 5664 5663 5661 5661
5701 5699 5717 5719 5718 5711 5699 5698 5702 5686 5686 5680 5688 5694 5696 5705 5704 5702 5700 5697 5694 5692 5689 5685 5682 5680 5676 5674 5672 5672 5671 5670 5669 5667 5666 5664 5663 5662 5661 5660 5659 5657 5656 5656
5704 5692 5704 5711 5711 5709 5704 5700 5694 5682 5670 5664 5679 5683 5681 5686 5688 5690 5689 5687 5685 5684 5681 5678 5675 5672 5670 5668 5666 5665 5664 5662 5661 5660 5658 5657 5656 5655 5654 5653 5652 5650 5650 5649
5701 5689 5691 5697 5693 5692 5693 5690 5687 5682 5680 5664 5659 5670 5693 5687 5685 5683 5682 5681 5678 5675 5671 5667 5665 5664 5663 5661 5658 5657 5656 5655 5653 5652 5651 5649 5648 5647 5646 5645 5644 5643 5642 5641
5695 5686 5681 5689 5701 5702 5695 5687 5681 5664 5666 5672 5662 5664 5694 5688 5684 5678 5675 5673 5671 5667 5663 5659 5657 5656 5653 5651 5649 5648 5647 5646 5645 5644 5643 5641 5640 5638 5637 5637 5637 5635 5633 5632
5683 5676 5667 5670 5677 5685 5684 5684 5680 5674 5666 5660 5654 5659 5685 5681 5675 5672 5668 5666 5663 5659 5656 5652 5648 5646 5644 5642 5641 5640 5639 5638 5637 5636 5635 5633 5632 5631 5630 5629 5628 5627 5625 5623
5675 5669 5664 5658 5666 5675 5672 5674 5674 5666 5653 5654 5659 5660 5668 5668 5664 5662 5660 5657 5655 5651 5647 5643 5639 5637 5636 5635 5633 5632 5631 5630 5629 5628 5627 5625 5624 5622 5622 5621 5619 5618 5616 5614
5670 5661 5667 5670 5675 5674 5671 5669 5668 5663 5660 5652 5656 5656 5659 5660 5657 5655 5654 5651 5647 5643 5640 5636 5631 5629 5628 5626 5625 5623 5622 5622 5621 5619 5618 5617 5616 5614 5613 5612 5610 5609 5607 5606
5663 5658 5660 5660 5667 5667 5663 5666 5664 5661 5660 5656 5654 5652 5659 5657 5653 5649 5646 5643 5638 5635 5632 5628 5624 5621 5619 5617 5615 5614 5614 5613 5613 5611 5610 5609 5607 5605 5603 5602 5601 5599 5598 5596
5656 5652 5645 5645 5657 5655 5649 5661 5661 5658 5658 5652 5643 5645 5650 5645 5643 5640 5636 5634 5630 5627 5623 5619 5616 5613 5611 5609 5607 5606 5605 5605 5604 5603 5602 5601 5599 5597 5594 5595 5593 5590 5589 5587
5651 5645 5639 5638 5640 5628 5649 5665 5662 5654 5651 5650 5646 5643 5641 5638 5637 5634 5630 5626 5622 5619 5615 5611 5608 5605 5604 5602 5600 5598 5597 5596 5594 5594 5592 5591 5589 5587 5586 5585 5583 5581 5580 5578
5652 5640 5632 5630 5626 5634 5646 5654 5651 5642 5638 5644 5638 5635 5634 5632 5628 5622 5622 5619 5614 5610 5607 5604 5601 5598 5596 5594 5592 5590 5588 5587 5585 5584 5582 5581 5580 5578 5577 5576 5574 5573 5571 5569
5646 5640 5627 5624 5616 5616 5634 5646 5649 5639 5625 5634 5632 5627 5624 5619 5606 5605 5611 5609 5605 5602 5599 5596 5593 5591 5587 5586 5585 5582 5579 5577 5576 5575 5574 5574 5572 5570 5569 5567 5566 5564 5562 5559
5627 5625 5619 5616 5614 5623 5632 5638 5637 5614 5613 5625 5624 5620 5615 5609 5604 5603 5602 5599 5595 5592 5590 5588 5585 5581 5579 5578 5576 5573 5571 5568 5568 5567 5566 5566 5565 5563 5561 5559 5557 5555 5553 5550
5622 5618 5617 5616 5609 5611 5626 5626 5618 5614 5621 5620 5616 5612 5607 5604 5601 5597 5593 5588 5585 5582 5580 5578 5575 5572 5570 5569 5567 5564 5562 5561 5561 5559 5558 5557 5556 5555 5554 5551 5549 5546 5543 5541
5624 5621 5617 5614 5610 5618 5622 5618 5617 5617 5612 5610 5606 5603 5599 5594 5590 5587 5583 5579 5576 5574 5571 5568 5565 5563 5562 5560 5558 5555 5554 5554 5552 5551 5549 5548 5548 5546 5545 5543 5540 5537 5534 5531
5619 5622 5615 5610 5613 5615 5615 5614 5611 5608 5603 5601 5597 5593 5588 5583 5579 5576 5573 5570 5567 5564 5562 5559 5557 5554 5553 5552 5550 5548 5547 5545 5544 5542 5541 5540 5539 5537 5536 5534 5532 5528 5525 5522
5608 5608 5604 5602 5606 5606 5605 5602 5600 5598 5595 5591 5587 5583 5578 5573 5569 5566 5563 5561 5558 5556 5553 5551 5549 5547 5545 5544 5542 5540 5538 5537 5535 5533 5532 5531 5529 5528 5526 5524 5522 5519 5516 5514
5602 5599 5594 5593 5597 5593 5592 5593 5591 5587 5583 5580 5577 5572 5569 5565 5562 5559 5555 5553 5550 5548 5545 5543 5541 5539 5537 5536 5534 5532 5530 5528 5526 5524 5523 5522 5520 5518 5516 5514 5511 5510 5507 5505